+ View the NASA Portal
+ Center for Near-Earth Object Studies
IMPORTANT:
The SSD Announcement email list is now available. Major changes are coming in the near future, including possible hostname and/or URL changes. To be notified of such changes, subscribe to this email list.
Please visit
this page
for more details.
Don't show this message again
JPL Small-Body Database Browser
Search:
[
help
]
447560 (2006 SU399)
Classification:
Main-belt Asteroid
SPK-ID:
2447560
[
Ephemeris
|
Orbit Diagram
|
Orbital Elements
|
Mission Design
|
Physical Parameters
|
Discovery Circumstances
]
[ show orbit diagram ]
Orbital Elements at Epoch 2458600.5 (2019-Apr-27.0) TDB
Reference:
JPL 6
(heliocentric ecliptic J2000)
Element
Value
Uncertainty (1-sigma)
Units
e
.06576399878128553
3.3344e-07
a
2.786680102088146
8.5906e-08
au
q
2.603416875250589
9.9001e-07
au
i
5.019114548472414
1.4619e-05
deg
node
191.450378454897
0.00010012
deg
peri
163.8500848419194
0.00023319
deg
M
273.725391071032
0.00017117
deg
t
p
2459007.701716797702
(2020-Jun-07.20171680)
0.00079641
TDB
period
1699.139756957534
4.65
7.857e-05
2.151e-07
d
yr
n
.2118719184374881
9.7972e-09
deg/d
Q
2.969943328925704
9.1556e-08
au
Orbit Determination Parameters
# obs. used (total)
46
data-arc span
3315 days (9.08 yr)
first obs. used
2006-09-18
last obs. used
2015-10-16
planetary ephem.
DE431
SB-pert. ephem.
SB431-N16
condition code
0
norm. resid. RMS
.69133
source
ORB
producer
Otto Matic
solution date
2017-Apr-09 11:38:16
Additional Information
Earth MOID
= 1.5983 au
Jupiter MOID
= 2.33019 au
T_jup
= 3.322
[ show covariance matrix ]
[
Ephemeris
|
Orbit Diagram
|
Orbital Elements
|
Mission Design
|
Physical Parameters
|
Discovery Circumstances
]
Physical Parameter Table
Parameter
Symbol
Value
Units
Sigma
Reference
Notes
absolute magnitude
H
17.6
n/a
MPO347192
447560 (2006 SU399)
Discovered 2006-Sep-18 by Spacewatch at Kitt Peak
Reference:
Last Updated:
2015-10-28
[
Ephemeris
|
Orbit Diagram
|
Orbital Elements
|
Mission Design
|
Physical Parameters
|
Discovery Circumstances
]
2019-Dec-12 14:15 UT
(server date/time)
Site Manager:
Ryan S. Park
Webmaster
:
Alan B. Chamberlin